Regional Weather Roundup
Issued by NWS

Home | Current Version | Previous Version | Graphics & Text | Print | Product List | Glossary On
Versions: 1 2 3 4 5 6 7 8 9 10 11 12 13 14 15 16 17 18 19 20 21 22 23 24 25 26 27 28 29 30 31 32 33 34 35 36 37 38 39 40 41 42 43 44 45 46 47 48 49 50
000
ASUS43 KTOP 261008
RWRKS

WEATHER ROUNDUP FOR KANSAS
NATIONAL WEATHER SERVICE GOODLAND KS
500 AM CDT THU MAY 26 2016

NOTE:  "FAIR" INDICATES FEW OR NO CLOUDS BELOW 12,000 FEET WITH NO
SIGNIFICANT WEATHER AND/OR OBSTRUCTIONS TO VISIBILITY.

KSZ001>006-013>018-027>032-041>047-261100-
NORTHWEST KANSAS

CITY           SKY/WX    TMP DP  RH WIND       PRES   REMARKS
GOODLAND       CLOUDY    54  50  86 SW6       29.94R
HAYS           CLOUDY    52  48  87 CALM      29.83S
HILL CITY      CLEAR     51  49  92 N6        29.86S
RUSSELL        CLEAR     58  55  90 NE9       29.82S
$$

KSZ061>065-074>080-084>089-261100-
SOUTHWEST KANSAS

CITY           SKY/WX    TMP DP  RH WIND       PRES   REMARKS
DODGE CITY     FOG       67  67 100 E10       29.79F VSB 1/4
ELKHART          N/A     57  32  39 NW10        N/A
GARDEN CITY    CLOUDY    65  64  97 E13       29.79F
GREAT BEND     MOCLDY    66  59  77 E9        29.82F
LIBERAL        CLEAR     54  43  66 S9        29.82S
PRATT          CLOUDY    70  67  92 E8        29.81F
$$

KSZ066>073-081>083-090>101-261100-
SOUTHEAST KANSAS

CITY           SKY/WX    TMP DP  RH WIND       PRES   REMARKS
CHANUTE        MOCLDY    75  72  90 S9        29.86R
COFFEYVILLE    CLOUDY    77  73  87 S9        29.85F
HUTCHINSON     MOCLDY    71  67  87 E8        29.83F
MEDICINE LODGE   N/A     75  72  90 SE10G18   29.78F
NEWTON         CLOUDY    72  66  83 SE3       29.88S
PARSONS        CLOUDY    77  74  90 S8        29.87R
WICHITA INTL   CLOUDY    74  70  87 VRB3      29.83R
WICHITA JABRA  CLOUDY    72  72 100 VRB5      29.84S
WICHITA MCCONL CLOUDY    73  71  92 VRB5      29.83S
WINFIELD       CLOUDY    76  73  91 S12G20    29.84S
$$

KSZ007>012-019>026-033>040-048>060-102>105-261100-
NORTHEAST KANSAS

CITY           SKY/WX    TMP DP  RH WIND       PRES   REMARKS
CONCORDIA      CLEAR     57  53  86 SE6       29.82F
EMPORIA        CLOUDY    73  71  93 S5        29.85S
LAWRENCE       CLOUDY    67  61  81 E9        29.89S
MANHATTAN      MOCLDY    66  61  84 CALM      29.83S
MARYSVILLE     CLEAR     59  57  94 E6        29.86R
OLATHE IND     CLOUDY    67  60  78 CALM      29.93R THUNDER
OLATHE EXE     TSTM      65  59  81 VRB7      29.92F
SALINA         CLEAR     66  61  84 E3        29.82F
TOPEKA BILLARD CLOUDY    68  64  87 E8        29.87R
TOPEKA FORBES  CLOUDY    68  64  87 E6        29.86R
$$




USA.gov is the U.S. government's official web portal to all federal, state and local government web resources and services.